Location: Taupo
(38.6830°S, 176.0830°E)
Time: 15:05:44
(UTC+13:00)

Cosmos 2228 Rocket - Pass Details

Date: 24 January 2019
Orbit: 617 x 653 km, 82.5° (Epoch: 16 February)

Event Time Altitude Azimuth Distance (km) Brightness Sun altitude
Exits shadow 21:12:53 - 29° (NNE) 2,430 5.6 -6.9°
Reaches altitude 10° 21:14:10 10° 37° (NE) 1,987 5.1 -7.1°
Maximum altitude 21:17:45 25° 91° (E) 1,272 4.2 -7.7°
Drops below altitude 10° 21:21:23 10° 146° (SE) 2,015 5.7 -8.3°
Sets 21:23:56 0° 159° (SSE) 2,935 6.7 -8.7°
